This is the latest recevied weather packets stored in our database for station/object G4MDP-13. If no packets are shown the sender has not sent any weather packets the latest 10 day(s).
| Time | Temp. | Humidity | Pressure | Rain* | Wind** | Luminosity | Snow |
|---|---|---|---|---|---|---|---|
| 1778024058 | 11.67° C | 71% | 1006 hPa | 0 mm | - | - | - |
| 1778023158 | 11.67° C | 67% | 1006.2 hPa | 0 mm | - | - | - |
| 1778023157 | 11.67° C | 67% | 1006.2 hPa | 0 mm | - | - | - |
| 1778022317 | 12.22° C | 63% | 1006.1 hPa | 0 mm | - | - | - |
| 1778022258 | 12.22° C | 63% | 1006.1 hPa | 0 mm | - | - | - |
| 1778021358 | 12.22° C | 62% | 1005.8 hPa | 0 mm | - | - | - |
| 1778021357 | 12.22° C | 62% | 1005.8 hPa | 0 mm | - | - | - |
| 1778020517 | 12.22° C | 60% | 1005.9 hPa | 0 mm | - | - | - |
| 1778020458 | 12.22° C | 60% | 1005.9 hPa | 0 mm | - | - | - |
| 1778019558 | 12.78° C | 58% | 1006 hPa | 0 mm | - | - | - |
| 1778019557 | 12.78° C | 58% | 1006 hPa | 0 mm | - | - | - |
| 1778018717 | 12.78° C | 57% | 1005.9 hPa | 0 mm | - | - | - |
| 1778018658 | 12.78° C | 58% | 1005.9 hPa | 0 mm | - | - | - |
| 1778017758 | 13.33° C | 59% | 1005.9 hPa | 0 mm | - | - | - |
| 1778017757 | 13.33° C | 59% | 1005.9 hPa | 0 mm | - | - | - |
| 1778016917 | 13.33° C | 63% | 1005.9 hPa | 0 mm | - | - | - |
| 1778016858 | 13.33° C | 63% | 1005.7 hPa | 0 mm | - | - | - |
| 1778015958 | 13.33° C | 61% | 1005.8 hPa | 0 mm | - | - | - |
| 1778015957 | 13.33° C | 61% | 1005.8 hPa | 0 mm | - | - | - |
| 1778015117 | 13.89° C | 61% | 1005.6 hPa | 0 mm | - | - | - |
| 1778015058 | 13.89° C | 61% | 1005.6 hPa | 0 mm | - | - | - |
| 1778014158 | 13.89° C | 63% | 1005.5 hPa | 0 mm | - | - | - |
| 1778014157 | 13.89° C | 63% | 1005.5 hPa | 0 mm | - | - | - |
| 1778013317 | 13.89° C | 62% | 1005.4 hPa | 0 mm | - | - | - |
| 1778013258 | 13.89° C | 62% | 1005.5 hPa | 0 mm | - | - | - |
* Rain latest hour (hover to see other rain measurements)
** Current wind speed in m/s (hover to see current wind gust speed)